Location: Kuffner-Sternwarte
(48.2130°N, 16.2960°E)
Time: 07:06:54
(UTC+02:00)

COROT - Pass Details

Date: 14 August 2018
Orbit: 602 x 886 km, 90.0° (Epoch: 17 October)

Event Time Altitude Azimuth Distance (km) Brightness Sun altitude
Rises 05:08:18 0° 199° (SSW) 3,225 8.8 -6.7°
Reaches altitude 10° 05:10:52 10° 207° (SSW) 2,255 7.9 -6.3°
Maximum altitude 05:15:27 36° 274° (W) 1,108 6.5 -5.6°
Drops below altitude 10° 05:19:46 10° 342° (NNW) 2,108 8.4 -5.0°
Sets 05:22:06 0° 351° (N) 2,987 9.3 -4.6°
